Tracking 23446 objects as of 19-Jun-2021
HD Live streaming from Space Station
objects crossing your sky now

ONEWEB-0231

Track ONEWEB-0231 now!
10-day predictions
ONEWEB-0231 is classified as:


NORAD ID: 48782
Int'l Code: 2021-045R
Perigee: 454.8 km
Apogee: 464.5 km
Inclination: 87.4 °
Period: 93.6 minutes
Semi major axis: 6830 km
RCS: Unknown
Launch date: May 28, 2021
Source: United Kingdom (UK)
Launch site: VOSTOCHNY COSMODROME (VOSTO)
aabbcc
Your satellite tracking list
Your tracking list is empty




NASA's NSSDC Master Catalog

Two Line Element Set (TLE):
1 48782U 21045R   21169.75001157 -.00934326  00000-0 -27452-1 0  9996
2 48782  87.4033 269.1514 0007079 185.5679  75.8730 15.37837722  2005
Source of the keplerian elements: AFSPC